[[{"header":{"parameterUnit":"m.s-1","parameterCategory":1,"la1":30.2991,"la2":30.254,"lo1":-89.0895,"lo2":-89.0444,"dy":0.0017,"dx":0.0017,"nx":28,"ny":28,"refTime":"2025-04-22T03:00:00:Z","depth":0,"parameterNumber":2,"parameterNumberName":"U-component_of_WINDS"},"data":[0,0,0,0,0,0,0,0,0,0,0,0,0,0,0,0,0,0,0,0,0,0,0,0,0,0,0,0,0,0,0,0,0,0,0,0,0,0,0,0,0,0,0,0,0,0,0,0,0,0,0,0,0,0,0,0,0,0,-2.752,-2.752,0,-2.7477,-2.7477,-2.7476,-2.7386,-2.7384,-2.7382,-2.738,-2.7338,-2.7339,-2.7339,0,0,0,0,0,0,0,0,0,0,0,0,0,-2.7528,-2.7529,-2.752,-2.752,-2.7519,-2.7477,-2.7476,-2.7476,-2.7386,-2.7384,-2.7381,-2.7379,-2.7338,-2.7339,-2.7339,0,0,0,0,0,0,0,0,0,0,0,0,0,-2.7509,-2.7529,-2.752,-2.7469,-2.7464,-2.7477,-2.7476,-2.7476,-2.7386,-2.7384,-2.7381,-2.7378,-2.7338,-2.7339,-2.734,-2.74,0,0,-2.7342,-2.7343,0,0,0,0,0,0,0,0,-2.751,-2.7509,-2.7477,-2.7473,-2.7467,-2.7434,-2.7464,-2.745,-2.7387,-2.7416,-2.738,-2.7377,-2.7372,-2.737,-2.7368,-2.7398,-2.7396,-2.7342,-2.7343,-2.7343,-2.7343,0,0,0,0,0,0,0,-2.7512,-2.751,-2.7503,-2.7477,-2.7471,-2.7449,-2.7444,-2.7461,-2.741,-2.7413,-2.7407,-2.7403,-2.7369,-2.7368,-2.7367,-2.7395,-2.7342,-2.7343,-2.7344,-2.7344,-2.7472,-2.7475,0,0,0,0,0,0,-2.752,-2.7512,-2.7505,-2.7502,-2.7482,-2.7452,-2.7445,-2.7447,-2.741,-2.7401,-2.7405,-2.7399,-2.7367,-2.7366,-2.7365,-2.7432,-2.7343,-2.7344,-2.7345,-2.7469,-2.7473,-2.7476,0,0,0,0,0,0,-2.7521,-2.752,-2.7506,-2.7505,-2.7502,-2.7454,-2.7458,-2.7448,-2.7446,-2.7403,-2.7394,-2.7412,-2.7365,-2.7364,-2.7391,-2.7429,-2.7344,-2.7345,-2.7466,-2.747,-2.7474,-2.7567,0,0,0,0,0,0,-2.7521,-2.7521,-2.7542,-2.7506,-2.7502,-2.7533,-2.746,-2.7449,-2.7448,-2.7439,-2.7408,-2.74,-2.7363,-2.7391,-2.7392,-2.7429,-2.7346,-2.7462,-2.7468,-2.7473,-2.756,-2.7574,-2.7585,0,0,0,0,0,-2.7522,-2.7571,-2.7544,-2.7543,-2.7528,-2.7535,-2.7533,-2.7488,-2.7451,-2.7472,-2.7445,-2.7401,-2.7426,-2.7394,-2.7395,-2.7433,-2.746,-2.7466,-2.7473,-2.7554,-2.7571,-2.7585,0,0,0,0,0,0,-2.7613,-2.7565,-2.7535,-2.7573,-2.7559,-2.752,-2.7545,-2.7507,-2.7504,-2.7496,-2.7442,-2.7436,-2.7471,-2.7455,-2.7421,-2.7489,-2.7435,-2.7443,-2.7497,-2.7513,-2.7525,-2.7527,-2.7347,0,0,0,0,0,-2.7637,-2.7646,-2.7605,-2.7643,-2.7637,-2.7593,-2.7595,-2.7562,-2.7545,-2.7539,-2.7513,-2.75,-2.7504,-2.7508,-2.751,-2.7559,-2.755,-2.7585,-2.7598,-2.7608,-2.7614,-2.7638,-2.7653,-2.7497,-2.7497,-2.7497,0,0,-2.7688,-2.7663,-2.7672,-2.766,-2.7645,-2.7657,-2.7588,-2.7603,-2.7611,-2.7541,-2.7565,-2.7547,-2.7528,-2.7567,-2.7582,-2.7554,-2.7656,-2.7616,-2.7625,-2.7625,-2.7646,-2.7661,-2.7674,-2.7502,-2.7501,-2.75,0,0,-2.7785,-2.7768,-2.7797,-2.7783,-2.7762,-2.7732,-2.774,-2.7707,-2.7692,-2.7715,-2.7663,-2.7673,-2.7682,-2.767,-2.7666,-2.7762,-2.7721,-2.7765,-2.7829,-2.7854,-2.7866,-2.7876,-2.7909,-2.7922,-2.7771,-2.7772,-2.7772,0,-2.785,-2.7864,-2.7817,-2.7835,-2.7831,-2.7769,-2.7799,-2.7789,-2.7769,-2.7769,-2.7738,-2.7748,-2.7731,-2.7766,-2.7789,-2.7789,-2.7795,-2.7766,-2.7868,-2.7878,-2.7887,-2.7918,-2.7931,-2.7777,-2.7776,-2.7776,-2.7775,0,-2.7945,-2.7956,-2.7983,-2.7964,-2.7965,-2.7989,-2.7946,-2.7952,-2.7921,-2.7895,-2.792,-2.7899,-2.7895,-2.7901,-2.7871,-2.7932,-2.7915,-2.7878,-2.7822,-2.7908,-2.7936,-2.7947,-2.7784,-2.7782,-2.7781,-2.7779,0,0,-2.8095,-2.8052,-2.8062,-2.8053,-2.8026,-2.8034,-2.8057,-2.8052,-2.8058,-2.8048,-2.8065,-2.8075,-2.804,-2.8035,-2.8003,-2.8025,-2.8101,-2.7984,-2.7983,-2.8005,-2.8167,-2.8193,-2.8208,-2.8075,-2.8078,-2.8079,-2.8168,0,-2.8184,-2.8217,-2.8176,-2.8219,-2.8228,-2.8171,-2.819,-2.8177,-2.8154,-2.816,-2.8136,-2.8143,-2.8097,-2.8094,-2.8113,-2.8088,-2.8133,-2.8081,-2.809,-2.8091,-2.8093,-2.8222,-2.825,-2.8334,-2.8178,-2.818,-2.8182,0,-2.829,-2.8285,-2.8328,-2.8299,-2.8301,-2.8319,-2.8312,-2.8319,-2.8303,-2.8286,-2.8281,-2.8243,-2.8264,-2.8213,-2.8241,-2.8207,-2.8209,-2.8198,-2.82,-2.8196,-2.8139,-2.822,-2.836,-2.8372,-2.8199,-2.8197,-2.8196,0,-2.8393,-2.8397,-2.8422,-2.8417,-2.8384,-2.8398,-2.8386,-2.8367,-2.8367,-2.8363,-2.8362,-2.8361,-2.8359,-2.8359,-2.8322,-2.8289,-2.8355,-2.8301,-2.834,-2.8341,-2.8354,-2.8353,-2.8493,-2.836,-2.836,-2.836,-2.8359,0,-2.8494,-2.8523,-2.8468,-2.8484,-2.8514,-2.8469,-2.8501,-2.8483,-2.8467,-2.8479,-2.8431,-2.8443,-2.8395,-2.8403,-2.8375,-2.8402,-2.8402,-2.8389,-2.838,-2.8391,-2.8393,-2.8389,-2.8381,-2.8363,-2.8362,-2.8362,-2.8361,0,-2.8611,-2.8576,-2.8601,-2.8568,-2.8561,-2.8585,-2.8557,-2.8571,-2.8548,-2.8563,-2.8565,-2.8527,-2.8534,-2.8498,-2.8499,-2.848,-2.852,-2.8504,-2.8525,-2.8519,-2.8559,-2.8555,-2.87,-2.8716,-2.8576,-2.8577,-2.8579,0,-2.8677,-2.8697,-2.8667,-2.8672,-2.8661,-2.8669,-2.8669,-2.8627,-2.8629,-2.8614,-2.863,-2.8633,-2.8632,-2.8647,-2.862,-2.862,-2.8602,-2.8653,-2.8601,-2.8612,-2.86,-2.8598,-2.8599,-2.8662,-2.8664,-2.8665,-2.8667,0,-2.8796,-2.8778,-2.8779,-2.8776,-2.8778,-2.8773,-2.8765,-2.8772,-2.8726,-2.8732,-2.8738,-2.8738,-2.8739,-2.8742,-2.8738,-2.8726,-2.8689,-2.8684,-2.8692,-2.8702,-2.8713,-2.8705,-2.8551,-2.868,-2.8678,-2.8677,-2.8677,-2.8676,-2.8887,-2.8903,-2.8884,-2.8888,-2.8878,-2.8872,-2.8883,-2.8861,-2.8865,-2.8862,-2.8838,-2.8849,-2.8834,-2.8824,-2.8816,-2.8825,-2.8801,-2.8814,-2.8817,-2.882,-2.8826,-2.8715,-2.8825,-2.8824,-2.8824,-2.8823,-2.8823,0,-2.9002,-2.8988,-2.8992,-2.8982,-2.8986,-2.8952,-2.8942,-2.8947,-2.8957,-2.8946,-2.8947,-2.8955,-2.8959,-2.8934,-2.8935,-2.8946,-2.8929,-2.8948,-2.8945,-2.8942,-2.8849,-2.884,-2.8961,-2.8961,-2.8961,-2.8961,-2.8961,-2.8961,-2.9061,-2.9085,-2.9066,-2.9085,-2.9071,-2.908,-2.9077,-2.9072,-2.9063,-2.9074,-2.9077,-2.9061,-2.9044,-2.9044,-2.9046,-2.9039,-2.904,-2.9064,-2.9051,-2.8963,-2.8949,-2.8936,-2.8927,-2.9065,-2.9066,-2.9143,-2.9144,-2.9144]},{"header":{"parameterUnit":"m.s-1","parameterCategory":1,"la1":30.2991,"la2":30.254,"lo1":-89.0895,"lo2":-89.0444,"dy":0.0017,"dx":0.0017,"nx":28,"ny":28,"refTime":"2025-04-22T03:00:00:Z","depth":0,"parameterNumber":3,"parameterNumberName":"V-component_of_WINDS"},"data":[0,0,0,0,0,0,0,0,0,0,0,0,0,0,0,0,0,0,0,0,0,0,0,0,0,0,0,0,0,0,0,0,0,0,0,0,0,0,0,0,0,0,0,0,0,0,0,0,0,0,0,0,0,0,0,0,0,0,1.4316,1.4316,0,1.4319,1.4319,1.4319,1.4354,1.4355,1.4356,1.4357,1.4353,1.4352,1.4351,0,0,0,0,0,0,0,0,0,0,0,0,0,1.4335,1.4335,1.4316,1.4316,1.4316,1.4319,1.4319,1.4319,1.4354,1.4355,1.4356,1.4357,1.4353,1.4352,1.4351,0,0,0,0,0,0,0,0,0,0,0,0,0,1.4331,1.4334,1.4316,1.4334,1.4335,1.4319,1.4319,1.4319,1.4354,1.4355,1.4356,1.4357,1.4354,1.4352,1.4351,1.4316,0,0,1.4347,1.4346,0,0,0,0,0,0,0,0,1.4331,1.433,1.4331,1.4332,1.4334,1.4338,1.4325,1.4318,1.4353,1.4346,1.4357,1.4358,1.4346,1.4346,1.4343,1.4315,1.4315,1.4347,1.4346,1.4345,1.4345,0,0,0,0,0,0,0,1.4332,1.433,1.4317,1.4331,1.4333,1.434,1.4341,1.4323,1.4338,1.4347,1.435,1.435,1.4347,1.4344,1.4343,1.4315,1.4347,1.4345,1.4345,1.4344,1.4262,1.426,0,0,0,0,0,0,1.433,1.433,1.4317,1.4317,1.4336,1.4339,1.434,1.4335,1.4339,1.4341,1.4349,1.4352,1.4346,1.4345,1.4343,1.4304,1.4345,1.4344,1.4343,1.4263,1.4261,1.426,0,0,0,0,0,0,1.433,1.4329,1.4317,1.4324,1.4324,1.4337,1.4331,1.4334,1.4331,1.434,1.4343,1.4343,1.4347,1.4345,1.4323,1.4305,1.4343,1.4342,1.4265,1.4263,1.4261,1.4225,0,0,0,0,0,0,1.4331,1.4328,1.4316,1.4324,1.4323,1.4298,1.433,1.4333,1.433,1.4333,1.4336,1.4337,1.4348,1.4325,1.4322,1.4303,1.4341,1.4266,1.4264,1.4261,1.4228,1.4222,1.4217,0,0,0,0,0,1.4331,1.4303,1.4315,1.4313,1.4308,1.4297,1.4296,1.4311,1.4328,1.4315,1.4322,1.4337,1.4307,1.4323,1.4319,1.43,1.4268,1.4264,1.4262,1.423,1.4223,1.4217,0,0,0,0,0,0,1.4289,1.4305,1.4318,1.4292,1.4293,1.4303,1.4287,1.4302,1.4296,1.43,1.4317,1.4317,1.4293,1.4294,1.4311,1.4268,1.429,1.4286,1.4268,1.4261,1.4255,1.4256,1.434,0,0,0,0,0,1.4278,1.4269,1.4282,1.4258,1.4258,1.4272,1.4268,1.428,1.4281,1.4281,1.4285,1.4284,1.4275,1.4267,1.4259,1.4228,1.423,1.4213,1.4208,1.4203,1.42,1.4186,1.4179,1.425,1.425,1.425,0,0,1.4252,1.426,1.4252,1.425,1.4252,1.4242,1.4272,1.4259,1.4252,1.4278,1.4259,1.4262,1.4262,1.4236,1.4225,1.4236,1.4181,1.4199,1.4196,1.4195,1.4182,1.4175,1.417,1.4248,1.4248,1.4249,0,0,1.4201,1.4205,1.4188,1.419,1.4195,1.4205,1.4201,1.4209,1.4213,1.4195,1.4215,1.4205,1.4188,1.4188,1.4186,1.4139,1.4154,1.4135,1.4106,1.4093,1.4087,1.4083,1.4067,1.4062,1.4132,1.4132,1.4131,0,1.4168,1.4156,1.4175,1.4163,1.4162,1.4188,1.417,1.4171,1.4171,1.4169,1.4183,1.4164,1.4165,1.4142,1.4131,1.4127,1.4123,1.4135,1.4087,1.4082,1.4078,1.4064,1.4058,1.4129,1.413,1.413,1.413,0,1.4116,1.4107,1.4092,1.4096,1.4093,1.4077,1.4093,1.4088,1.41,1.4109,1.4091,1.4094,1.4088,1.4083,1.4094,1.4061,1.4069,1.4084,1.4108,1.4069,1.4056,1.405,1.4126,1.4127,1.4128,1.4128,0,0,1.4037,1.4055,1.4049,1.4053,1.4061,1.4054,1.4039,1.4037,1.4032,1.4032,1.4021,1.4008,1.4023,1.4021,1.4032,1.402,1.3985,1.4037,1.4037,1.4029,1.3951,1.3941,1.3934,1.3995,1.3994,1.3993,1.3952,0,1.399,1.3969,1.3988,1.3963,1.3956,1.3983,1.3971,1.3974,1.3982,1.3976,1.3984,1.3976,1.3996,1.3995,1.3984,1.3991,1.397,1.3994,1.3984,1.3984,1.3985,1.3927,1.3915,1.3876,1.3947,1.3946,1.3945,0,1.3931,1.3933,1.3908,1.3922,1.3919,1.3908,1.3909,1.3903,1.3908,1.3915,1.3914,1.3929,1.3916,1.3939,1.3921,1.3938,1.3935,1.3938,1.3937,1.3937,1.3963,1.3927,1.3864,1.3858,1.3937,1.3938,1.3938,0,1.3878,1.3874,1.386,1.3861,1.3876,1.3868,1.3873,1.388,1.3878,1.3878,1.3877,1.3874,1.3872,1.3869,1.3883,1.3899,1.3864,1.3888,1.387,1.3869,1.3861,1.3862,1.3798,1.3858,1.3858,1.3858,1.3858,0,1.3824,1.3808,1.3837,1.3828,1.3812,1.3833,1.3816,1.3823,1.383,1.3822,1.3843,1.3836,1.3855,1.3849,1.3859,1.3844,1.3843,1.3848,1.3851,1.3847,1.3846,1.3845,1.3849,1.3856,1.3857,1.3857,1.3857,0,1.3762,1.378,1.3767,1.3784,1.3787,1.3775,1.3788,1.378,1.3791,1.3782,1.3781,1.3797,1.3791,1.3806,1.3801,1.3808,1.3787,1.3794,1.3787,1.3789,1.3771,1.3773,1.3705,1.3698,1.376,1.376,1.3759,0,1.3727,1.3716,1.3733,1.3731,1.3737,1.3732,1.3732,1.3753,1.3751,1.3758,1.3749,1.3747,1.3745,1.3735,1.3746,1.3743,1.3751,1.3727,1.375,1.3747,1.3752,1.3753,1.3753,1.3722,1.3722,1.3721,1.372,0,1.3663,1.3674,1.3673,1.3677,1.3677,1.368,1.3684,1.3681,1.3704,1.3701,1.3697,1.3697,1.3695,1.3692,1.3692,1.3696,1.3712,1.3714,1.3709,1.3705,1.3702,1.3705,1.3775,1.3715,1.3715,1.3716,1.3716,1.3716,1.3614,1.3607,1.3619,1.3619,1.3626,1.363,1.3625,1.3637,1.3635,1.3637,1.3649,1.3643,1.365,1.3653,1.3656,1.3651,1.3662,1.3655,1.3654,1.3652,1.365,1.3703,1.3651,1.3651,1.3651,1.3651,1.3652,0,1.3553,1.3563,1.3563,1.3571,1.3571,1.3589,1.3595,1.3594,1.359,1.3596,1.3596,1.3593,1.3591,1.3602,1.3602,1.3596,1.3604,1.3596,1.3597,1.3598,1.364,1.3644,1.359,1.359,1.359,1.359,1.359,1.359,1.3522,1.3512,1.3524,1.3518,1.3527,1.3525,1.3527,1.3531,1.3537,1.3534,1.3534,1.3542,1.3551,1.3552,1.3551,1.3555,1.3554,1.3543,1.3549,1.3588,1.3594,1.36,1.3605,1.3543,1.3543,1.3508,1.3508,1.3507]}]]